Find Starlink 31778

NORAD ID: 59602 Int'l Des: 2024-080 Owner: SPXS Country: US Constellation: starlink operational
LEOCIRCULAR

現在のビュー

3D地球を読み込み中...

About Starlink 31778

Starlink 31778 (NORAD 59602) is a starlink constellation satellite (v2 mini) launched Apr 28, 2024 by SPXS of US. It operates in LEO, CIRCULAR orbit with a mass of 730.00 kg.

Starlink 31778について

説明を読み込み中...

次回通過

Passes for default location (London). Set your location on the main map for personalized predictions.

高度履歴

Loading altitude history...

軌道要素

1 59602U 24080B 26171.31080507 .00000823 00000-0 39429-4 0 9991
2 59602 43.0001 175.2080 0001182 272.0552 88.0164 15.27579229120267
Epoch: Jun 20, 2026 • Age: 34 hours

現在のステータス

高度 484.6 km
速度 7.63 km/s
衛星直下点 31.56°N, 141.77°E
打ち上げ日 Apr 28, 2024
運用期間 2.1 years
タイプ internet

技術仕様

分類 Payload
質量 730.00 kg
乾燥質量 700.00 kg
総質量 730.00 kg
長さ 0.30 m
直径 4.10 m
スパン 29.00 m
形状 Box + pan
製造者 SPXS
バスタイプ Starlink V2M
フェーズステータス In Orbit
所有者/国 SPXS/US

Most Searched